Flag for Netherlands Weather past 2 weeks in Oss, Netherlands

Now
54 °F

Light rain. Mostly cloudy.


Feels Like: 52 °F
Forecast: 46 / 60 °F
Wind: 7 mph from South

Location: Volkel

Current Time: Oct 24, 2014 at 8:02:56 PM

Latest Report: Oct 24, 2014 at 7:25 PM


Visibility: N/A

Pressure: 30.04 "Hg

Humidity: 88%

Dew point: 50 °F

Location of OssLocation

Historic Weather in Oss — Graph

°F

Oss temperature yesterday

Maximum temperature yesterday: 57 °F (at 1:55 PM)
Minimum temperature yesterday: 41 °F (at 12:55 AM)
Average temperature yesterday: 52 °F

Past Weeks' High & Low Weather Summary

 TemperatureHumidityPressure
High73 °F (Oct 18, 2:55 PM)100% (Oct 10, 9:25 PM)30.21 "Hg (Oct 10, 9:25 PM)
Low41 °F (Oct 12, 7:25 AM)64% (Oct 13, 2:25 PM)29.45 "Hg (Oct 21, 2:59 PM)
Average56 °F88%29.88 "Hg
* Reported Oct 9 6:25 PM — Oct 24 6:55 PM, Oss, Weather by CustomWeather, © 2014

Note: Actual official high and low records may vary slightly from our data, if they occured in-between our weather recording intervals... More about our weather records

Advertising

Oss weather history for previous 24 hours

 ConditionsComfort  
Time TempWeatherWind HumidityBarometerVisibility
6:55 PM
Oct 24
54 °FCloudy.7 mph82%30.01 "HgN/A
6:25 PM54 °FCloudy.8 mph82%30.01 "HgN/A
5:55 PM54 °FMostly cloudy.9 mph82%30.04 "HgN/A
5:25 PM55 °FOvercast.9 mph82%30.04 "HgN/A
4:55 PM55 °FOvercast.10 mph82%30.04 "HgN/A
4:25 PM54 °FMore clouds than sun.9 mph88%30.04 "HgN/A
4:02 PM55 °FMostly cloudy.9 mph82%30.04 "HgN/A
3:55 PM55 °FMore clouds than sun.9 mph82%30.04 "HgN/A
3:25 PM54 °FOvercast.10 mph88%30.07 "HgN/A
2:55 PM54 °FOvercast.9 mph88%30.07 "HgN/A
2:25 PM52 °FRain. Mostly cloudy.10 mph94%30.07 "HgN/A
1:59 PM54 °FMostly cloudy.10 mph88%30.07 "HgN/A
1:25 PM52 °FMostly cloudy.10 mph94%30.09 "HgN/A
12:55 PM52 °FLight rain. Mostly cloudy.9 mph88%30.09 "HgN/A
12:25 PM54 °FDrizzle. Partly sunny.9 mph82%30.09 "HgN/A
11:55 AM52 °FDrizzle. Overcast.9 mph88%30.09 "HgN/A
11:25 AM52 °FDrizzle. Overcast.9 mph88%30.09 "HgN/A
10:55 AM52 °FLight rain. Partly sunny.12 mph82%30.09 "HgN/A
10:25 AM52 °FPartly sunny.9 mph82%30.09 "HgN/A
9:55 AM52 °FOvercast.8 mph82%30.12 "HgN/A
9:25 AM52 °FOvercast.8 mph88%30.09 "HgN/A
8:55 AM52 °FMostly cloudy.9 mph82%30.09 "HgN/A
8:25 AM52 °FOvercast.9 mph88%30.09 "HgN/A
7:55 AM52 °FOvercast.8 mph88%30.09 "HgN/A
7:25 AM52 °FOvercast.8 mph88%30.09 "HgN/A
6:55 AM52 °FOvercast.8 mph88%30.12 "HgN/A
6:25 AM52 °FOvercast.7 mph88%30.12 "HgN/A
5:55 AM52 °FOvercast.8 mph88%30.12 "HgN/A
5:25 AM52 °FOvercast.9 mph88%30.12 "HgN/A
4:55 AM52 °FOvercast.9 mph88%30.12 "HgN/A
4:25 AM52 °FOvercast.9 mph88%30.12 "HgN/A
3:55 AM52 °FOvercast.8 mph88%30.12 "HgN/A
3:25 AM52 °FOvercast.9 mph88%30.12 "HgN/A
2:55 AM52 °FMostly cloudy.9 mph88%30.12 "HgN/A
2:25 AM52 °FOvercast.10 mph88%30.12 "HgN/A
1:55 AM52 °FOvercast.9 mph88%30.15 "HgN/A
1:25 AM52 °FOvercast.10 mph88%30.15 "HgN/A
12:55 AM54 °FOvercast.10 mph88%30.15 "HgN/A
12:25 AM54 °FOvercast.8 mph88%30.15 "HgN/A
11:55 PM
Oct 23
54 °FOvercast.9 mph88%30.15 "HgN/A
11:25 PM54 °FOvercast.8 mph88%30.15 "HgN/A
10:55 PM54 °FOvercast.8 mph88%30.15 "HgN/A
10:25 PM54 °FOvercast.8 mph88%30.15 "HgN/A
9:55 PM54 °FOvercast.9 mph88%30.15 "HgN/A
9:25 PM54 °FOvercast.12 mph88%30.15 "HgN/A
8:55 PM54 °FOvercast.9 mph94%30.15 "HgN/A
8:25 PM55 °FOvercast.9 mph88%30.15 "HgN/A
Weather by CustomWeather, © 2014

See weather overviewHow to use our weather pages